Погода в Ербогачене

Погода в Ербогачене : погода сейчас, прогноз погоды и архив. Всё, что Вы хотите узнать о погоде в Ербогачене!

Хотите узнать прогноз погоды в Ербогачене? Тогда Вам сюда: Погода в Ербогачене

Поиск расширенной информации на нашем сайте:

Другие новости

Новости СМИ2

Главная страница сайта

Новости сайта

03.07.2017

Напоминаем, что на нашем специализированном сайте Метеоцентр.Азия вы можете получить высокодетализированные автоматические прогнозы погоды по пунктам России, СНГ и мира в авиационном формате (включающие направление и скорость ветра, видимость, явления погоды, количество и форму облачности, нижнюю и верхнюю границу облачности).


Погода в Ербогачене - сегодня

Время (UTC), дата Ветер
(°,м/с) 
Видим.   Явления Облачность Т
(°С)
Тd
(°С)
f(%) Тe
(°С)
Pmin
(гПа)
dP
(гПа)
Po
(мм)
O2
(г/м3)
Тmin Tmax R s Состояние
почвы
00 22.05.18 010 (С) 20000 м    8/0 средняя, верхняя 
[Ac lent|Cc]
+9.8 -5.9 33 +9  999.8  -2  725  283  +5.6         
06 22.05.18 010 (С) 14{10}  20000 м  пыльный позёмок  3/3 1000 м средняя 
[Sc|Ac As]
-5.6   994.9  -1.9  721             
09 22.05.18 080 (В) 20000 м  осадки на расстоянии  10/4 600 м кучево-дожд., средняя 
[Cb cap|Ac As]
+8.8 +0 54 +8  994.9  -0.2  721  281           
12 22.05.18 060 (СВ) 20000 м  слаб. ливневой дождь  10/10 600 м кучево-дожд. 
[Cb cap]
+6.5 +1.8 72 +6  994.8  -0.4  721  283    +12.6  0.0     
15 22.05.18 010 (С) н/о  слаб. ливневой дождь  10/10 600 м кучево-дожд. 
[Cb cap]
+4.2 +3.5 95 +5  995  -1.3  720  285           
18 22.05.18 010 (С) н/о  слаб. ливневой дождь  10/10 600 м кучево-дожд. 
[Cb cap]
+3.2 +2.2 93 +4  992.5  -1.4  719  286           
21 22.05.18 350 (С) 20000 м  слаб. ливневой дождь  10/10 600 м кучево-дожд. 
[Cb cap]
+2.9 +2.1 94 +2  991.1  -1.4  718  286           
00 23.05.18 010 (С) 20000 м  слаб. ливневой дождь  10/10 300 м кучево-дожд. 
[Cb cap]
+3.5 +2 90 +3  990.2  -0.6  717  285  +2.7       
03 23.05.18 340 (С) 20000 м  слаб. ливневой дождь  10/10 300 м кучево-дожд. 
[Cb cap]
+4.8 +2.8 87 +4  989.6  -0.5  717  283           
06 23.05.18 340 (С) 20000 м  слаб. ливневой дождь  10/10 300 м кучево-дожд. 
[Cb cap]
+6.1 +3.2 82 +6  989.8  0.3  717  282           
09 23.05.18 330 (СЗ) 20000 м  в посл. час ливневой дождь  10/10 300 м кучево-дожд. 
[Cb cap]
+6.9 +4.1 82 +7  990.8  718  281           
12 23.05.18 040 (СВ) 20000 м  слаб. ливневой дождь  10/10 300 м кучево-дожд. 
[Cb cap]
+6.1 +5.4 95 +7  991.9  1.1  719  282    +7.4     
15 23.05.18 020 (С) н/о  слаб. ливневой дождь  10/10 300 м кучево-дожд. 
[Cb cap]
+5.2 +4.7 97 +6  991.9  -0.1  719  283           
18 23.05.18 080 (В) н/о  туман на расстоянии{ливн. осадки}  9/9 600 м кучево-дожд. 
[Cb cap]
+3.4 +2.9 97 +4  992.3  0.1  719  286           
21 23.05.18 080 (В) 20000 м  туман на расстоянии  10/10 600 м кучево-дожд. 
[Cb cap]
+3.2 +2.2 93 +4  993.2  0.8  719  286           
00 24.05.18 150 (ЮВ) 20000 м  осадки на расстоянии{ливн. осадки}  10/10 300 м кучево-дожд. 
[Cb cap]
+4.9 +3.7 92 +5  994.6  1.6  721  285  +3.1       
03 24.05.18 160 (Ю) 20000 м  осадки на расстоянии  9/9 300 м кучево-дожд. 
[Cb cap]
+6.5 +4.4 86 +6  996.8  2.3  722  284           
06 24.05.18 240 (ЮЗ) 20000 м  осадки на расстоянии  9/9 600 м кучево-дожд. 
[Cb cap]
+10.8 +2.1 55 +10  998.6  2.3  724  280           
12 24.05.18 210 (ЮЗ) 20000 м  в посл. час ливневой дождь  9/9 600 м кучево-дожд. 
[Cb cap]
+10.1 +9.4 95 +11  1004.1  2.6  728  281    +10.9  0.0     
15 24.05.18 170 (Ю) 20000 м  в посл. час ливневой дождь  4/4 600 м кучево-дожд. 
[Cb cap]
+6.6 +2.8 77 +8  1007.8  3.1  730  287           
18 24.05.18 тихо ()   н/о  {ливн. осадки}  3/3 1000 м 
[Sc diur, vesp]
+4.5 +2.3 86 +5  1009.7  1.6  732  290           
21 24.05.18 210 (ЮЗ) 20000 м    10/0 средняя, верхняя 
[Ac lent|Cc]
+3.9 +1.6 85 +3  1012.1  2.2  733  291           
00 25.05.18 200 (Ю) 20000 м    10/0 верхняя 
[Cc]
+8.3 -0.7 53 +9  1013.8  2.1  735  287  +3.4    0.0     
03 25.05.18 250 (З) 20000 м    8/6 1000 м верхняя 
[Cu med, cong|Ci fib]
+10.9 -3.5 36 +11  1013.7  0.3  735  285           
06 25.05.18 290 (З) 20000 м    4/3 1000 м верхняя 
[Cu med, cong|Ci fib]
+14 -4.4 28 +15  1013  -0.4  735  282           
Время (UTC), дата Ветер
(°,м/с) 
Видим.   Явления Облачность Т
(°С)
Тd
(°С)
f(%) Тe
(°С)
Pmin
(гПа)
dP
(гПа)
Po
(мм)
O2
(г/м3)
Тmin Tmax R s Состояние
почвы

Для получения пояснительной информации подведите курсор к названию столбца.

ПОГОДА в Ербогачене - архив

Всё, что Вы хотите узнать о погоде в Ербогачене - удобно и подробно!

Выберите нужную дату (начиная с 1 января 2015* года) и нажмите кнопку "Найти".
Будут отображены архивные сводки погоды по пункту Ербогачен, начиная с указанной даты.


Отображать данные в формате CSV (для использования в таблицах Excel)


Внимание! Наш архив погоды предназначен исключительно для личного некоммерческого использования в познавательных целях. Если Вам необходимы официальные справки о состоянии погоды (для производственных, юридических, коммерческих и т.п. целей), обращайтесь в органы Росгидромета.

*Примечание: данная дата относится к архиву по метеостанциям СССР (Россия, СНГ, Балтия).
Архив по метеостанциям Зарубежной Европы и Азии (кроме Китая) хранится 10 дней, по другим регионам земного шара (Китай, Африка, Америка, Австралия, Океания) - 1 день.

Ербогачен - район местоположения метеостанции


Название, широта, долгота, высота метеостанции:
Ербогачен 61.3°ш. 108°д. 291 м над ур. моря [Российская Федерация]

Дополнительная информация

В oтличие oт бoльшинства пoгoдных сайтoв мы публикуем пoдрoбную метеoинфoрмацию в детальнoм прoфессиoнальнoм фoрмате.

Характеристики температуры и влажнoсти вoздуха измеряются на высoте 2 м в тени вдали oт зданий и деревьев.
Скoрoсть ветра измеряется на высoте 10 м (на урoвне рoста челoвека скoрoсть ветра ниже в 1.5-2 раза). Если метеoстанция нахoдится в гoрoде или в лесу, тo скoрoсть ветра занижена на 2-4 м/с пo сравнению с oткрытым местoм. Скoрoсть ветра над акватoриями крупных рек и oзёр, а также на вершинах хoлмoв на 2-5 м/с выше, чем в oбычных услoвиях.
Атмoсфернoе давление в разных тoчках местнoсти мoжет значительнo oтличаться oт давления на метеoстанции, в зависимoсти oт услoвий рельефа (при пoдъёме на 10 м давление пoнижается примернo на 1 мм рт.ст.).